Location: Imperia
(43.8830°N, 8.0500°E)
Time: 14:31:20
(UTC+01:00)

ISS - Visible Passes

Search period start: 24 January 2019 00:00
Search period end: 03 February 2019 00:00
Orbit: 404 x 410 km, 51.6° (Epoch: 24 January)

Date Brightness Start Highest point End Pass type
(mag) Time Alt. Az. Time Alt. Az. Time Alt. Az.
24 Jan -3.5 19:21:41 10° WSW 19:24:47 64° NW 19:24:47 64° NW visible
25 Jan -3.8 18:30:19 10° SW 18:33:36 73° SE 18:35:41 21° ENE visible
25 Jan -0.8 20:07:29 10° WNW 20:08:24 16° WNW 20:08:24 16° WNW visible
26 Jan -2.8 19:15:46 10° W 19:18:51 36° NNW 19:19:13 35° N visible
27 Jan -3.3 18:24:08 10° WSW 18:27:22 53° NNW 18:30:00 15° NE visible
27 Jan -0.9 20:01:45 10° WNW 20:02:42 15° NW 20:02:42 15° NW visible
28 Jan -2.2 19:10:00 10° WNW 19:12:48 25° NNW 19:13:26 23° N visible
29 Jan -2.5 18:18:13 10° W 18:21:13 31° NNW 18:24:07 11° NE visible
29 Jan -1.1 19:55:51 10° NW 19:56:50 15° NW 19:56:50 15° NW visible
30 Jan -2.0 19:04:10 10° WNW 19:06:47 21° N 19:07:30 20° NNE visible
31 Jan -2.1 18:12:23 10° WNW 18:15:07 23° N 18:17:51 10° NE visible
31 Jan -1.3 19:49:40 10° NW 19:50:52 17° NNW 19:50:52 17° NNW visible
01 Feb -2.1 18:58:07 10° NW 19:00:44 21° N 19:01:32 19° NNE visible
02 Feb -2.0 18:06:27 10° NW 18:09:02 21° N 18:11:37 10° NE visible
02 Feb -1.8 19:43:15 10° NW 19:44:55 23° NNW 19:44:55 23° NNW visible
